Weather in Madjalis

Russia / Republic of Dagestan     42°07′17″N   47°49′52″E
temp.,
°C
wind,
m/s
gust,
m/s
humid.,
%
clouds,
%
prec.,
mm/h
press.,
hPa
HPBL,
m
11 may, tue
tue1100:000ssw229659 0.1 102348
03:00−3sw43855 0.1 102435
06:000ssw33864 0.0 102168
09:00+3e239164 0.0 1019381
12:00+5e229175 0.0 1017431
15:00+6ene229475 0.1 1015263
18:00+6ese129780 0.0 1016238
21:00+5sw119243 0.0 101716
12 may, wed
wed1200:00+4sw32820 0.0 101613
03:00+4sw32800 0.0 101514
06:00+7sw21840 0.0 101536
09:00+11ene118324 0.0 1015309
12:00+14ene32751 0.0 1014517
15:00+14ene327630 0.0 1014395
18:00+11ene118820 0.0 101585
21:00+9sw22680 0.0 101614
13 may, thu
thu1300:00+9sw32500 0.0 101618
03:00+10sw43494 0.0 101522
06:00+13sw22554 0.0 101519
09:00+18ene22504 0.0 1015627
12:00+20ne43559 0.0 10141101
15:00+19e336460 0.6 1015506
18:00+17se11773 0.1 101529
21:00+14sw33564 0.1 101622
14 may, fri
fri1400:00+13sw43423 0.0 101627
03:00+13sw43385 0.0 101626
06:00+15sw33490 0.0 101732
09:00+21ene33400 0.0 1016741
12:00+22ene45435 0.0 10161005
15:00+21ene334637 0.1 10161102
18:00+17ssw1171100 0.3 101730
21:00+14sw3355100 0.4 101828
15 may, sat
sat1500:00+13sw43520 0.0 101732
03:00+13sw43570 0.0 101633
06:00+15sw32610 0.0 101640
09:00+20ene32500 0.0 1015831
12:00+21ne32501 0.1 10161173
15:00+20ene33490 0.3 10151054
18:00
21:00+14sw2262100 0.1 101813